sat.trackr.live / text

‹ back to catalog

STARLINK-38091

NORAD 69997 · 2026-159Y

PAYLOAD ACTIVE UNKNOWN

§ Identity

Operator
Country
US
Launch date
2026-07-11
Launch site
AFWTR
Launch vehicle
Mass (kg)
RCS (m²)

Purposes: comms

External: N2YO · Heavens-Above · Gunter

§ Orbital elements

Epoch: 2026-09-20T04:00:03.000096Z

Period
93.33 min
Inclination
97.2855°
Eccentricity
0.0001331
Mean motion
15.42873550 rev/d
Perigee alt
436.7 km
Apogee alt
438.5 km
Semi-major
6,815.8 km
B*
-7.1075e-2
RAAN
105.0906°
Arg perigee
101.5930°
Mean anomaly
205.8306°
Rev number
599

§ Raw data

STARLINK-380911 69997U 26159Y   26263.16670139 -.02725083  00000+0 -71075-1 0  99942 69997  97.2855 105.0906 0001331 101.5930 205.8306 15.42873550  5993

JSON: /api/v1/satellites/69997 · /tle

For live sub-satellite position, see the globe view (requires WebGL).

§ Visibility from observer

Set your observer location to see the next 7 days of passes ≥ 10°. The values pass through the URL so the page stays shareable.

No JS? Fill the form by hand. The geolocation button needs JavaScript.